Regional Weather Roundup
Issued by NWS

Home | Current Version | Previous Version | Text Only | Print | Product List | Glossary Off
Versions: 1 2 3 4 5 6 7 8 9 10 11 12 13 14 15 16 17 18 19 20 21 22 23 24 25 26 27 28 29 30 31 32 33 34 35 36 37 38 39 40 41 42 43 44 45 46 47 48 49 50

000
ASUS43 KMPX 272210
RWRMN
WEATHER ROUNDUP FOR MINNESOTA
NATIONAL WEATHER SERVICE TWIN CITIES/CHANHASSEN MN
500 PM CDT TUE JUN 27 2017


NOTE: "FAIR" INDICATES FEW OR NO CLOUDS BELOW 12,000 FEET WITH NO
SIGNIFICANT WEATHER AND/OR OBSTRUCTIONS TO VISIBILITY. N/A MEANS
CURRENT SKY AND/OR WEATHER CONDITIONS ARE NOT AVAILABLE.

MNZ060>063-068>070-272300-
   Twin Cities Metro

CITY           SKY/WX    TMP DP  RH WIND       PRES   REMARKS
TWIN CITIES    CLOUDY    77  40  26 S18G24    29.91F
ST PAUL        CLOUDY    74  45  35 S14       29.91F
CRYSTAL        CLOUDY    75  40  28 S15G28    29.89F
BLAINE         PTSUNNY   75  45  33 S9G18     29.90F
LAKEVILLE      CLOUDY    73  43  33 S14G21    29.92F
EDEN PRAIRIE   CLOUDY    75  42  30 S15G23    29.89F
SOUTH ST PAUL  MOSUNNY   75  42  30 S10G17    29.91F
LAKE ELMO      FAIR      73  45  35 S14       29.92F
$$
MNZ001>005-007-008-013>017-022>024-027-028-272300-
   Northwest Minnesota

CITY           SKY/WX    TMP DP  RH WIND       PRES   REMARKS
BEMIDJI        SUNNY     75  45  34 S16G23    29.80S
HALLOCK        MOSUNNY   79  46  31 S20       29.67F
ROSEAU         MOSUNNY   77  50  38 S13G21    29.74F
WARROAD        CLOUDY    75  48  38 S10       29.76F
THIEF RVR FALL SUNNY     76  43  30 S17G26    29.74
CROOKSTON      SUNNY     77  43  29 S22G29    29.71F
FOSSTON        SUNNY     73  45  35 S15       29.78S
DETROIT LAKES  SUNNY     73  43  33 S18G28    29.80R
MOORHEAD       CLOUDY    77  45  31 SE16G29   29.73F
PARK RAPIDS    SUNNY     76  42  29 S15G31    29.79F
MAHNOMEN       FAIR      73  46  37 S12G21    29.77S
$$
MNZ006-009>011-018-025>026-272300-
   North Central Minnesota

CITY           SKY/WX    TMP DP  RH WIND       PRES   REMARKS
BAUDETTE       MOSUNNY   73  48  41 S7        29.78F
FLAG ISLAND    CLOUDY    72  43  35 SE6       29.76S
INTL FALLS     CLOUDY    72  46  39 S7        29.80F
WASKISH        MOSUNNY   75  46  35 S8        29.79F
BIG FORK       CLOUDY    73  46  38 S12G17    29.82F
LONGVILLE      MOSUNNY   73  45  35 S10G16    29.83F
GRAND RAPIDS   CLOUDY    72  45  37 SW10      29.86F
CRANE LAKE     MOSUNNY   72  43  35 S7        29.84F
ORR            CLOUDY    72  41  33 S8        29.81F
COOK           CLOUDY    72  45  37 S8G18     29.84F
WALKER         FAIR      73  44  35 S10G22    29.80F
$$
MNZ012-019>021-037-272300-
   Northeast Minnesota

CITY           SKY/WX    TMP DP  RH WIND       PRES   REMARKS
DULUTH         SUNNY     72  44  36 SW14G25   29.88F
HIBBING        CLOUDY    72  42  34 S13G22    29.85F
EVELETH        CLOUDY    73  32  22 S9G16     29.86F
DULUTH HARBOR  MOSUNNY   75  45  33 S10       29.86F
TWO HARBORS    MOSUNNY   75  52  43 SW17      29.86F
SILVER BAY     MOSUNNY   73  45  35 S17G26    29.86F
GRAND MARAIS     N/A     55  46  71 W8        29.87F
G MARAIS ARPRT SUNNY     64  39  39 SW9G20    29.90F
$$
MNZ029>031-032-039>041-046>048-054>057-064-272300-
   West Central Minnesota

CITY           SKY/WX    TMP DP  RH WIND       PRES   REMARKS
FERGUS FALLS   CLOUDY    72  45  37 S16       29.75R THUNDER
WHEATON        TSTM      72  45  37 SE17G25   29.75F
MORRIS         CLOUDY    75  45  33 S18G25    29.76F
ALEXANDRIA     CLOUDY    71  43  36 S18G24    29.82F
ELBOW LAKE     FAIR      71  47  42 E20       29.76S THUNDER
WADENA         SUNNY     73  46  38 S20G25    29.79F
GLENWOOD       CLOUDY    72  46  40 S16       29.84F
APPLETON       PTSUNNY   77  39  25 S13G18    29.79S
BENSON         CLOUDY    77  45  31 S16G25    29.83S
ORTONVILLE     CLOUDY    79  46  31 S12G23    29.77F
MADISON        PTSUNNY   81  45  28 S18G28    29.77F
WILLMAR        FAIR      75  45  33 SE13G20   29.85F
$$
MNZ033>034-036-042>043-049>051-058-059-272300-
   Central Minnesota

CITY           SKY/WX    TMP DP  RH WIND       PRES   REMARKS
ST CLOUD       PTSUNNY   75  43  31 S16G24    29.86F
SAUK CENTRE    FAIR      73  44  35 S17       29.82F
PAYNESVILLE    CLOUDY    74  42  31 S16       29.85F
AITKIN         MOSUNNY   73  45  35 S15G21    29.84F
PINE RIVER     SUNNY     73  48  40 S17G25    29.87F
BRAINERD       MOSUNNY   73  41  31 S20       29.86F
STAPLES        SUNNY     73  39  29 S18G26    29.82F
LONG PRAIRIE   FAIR      73  43  33 SE20G29   29.83F
LITTLE FALLS   SUNNY     75  37  25 S16G23    29.86F
LITCHFIELD     CLOUDY    73  46  38 S10G17    29.87F
BUFFALO        CLOUDY    74  40  29 SE12      29.89F
MAPLE LAKE     CLOUDY    75  47  37 S6        29.88F
HUTCHINSON     SUNNY     74  47  37 S9G21     29.88F
$$
MNZ037-044-045-052-053-272300-
   East Central Minnesota

CITY           SKY/WX    TMP DP  RH WIND       PRES   REMARKS
PRINCETON      PTSUNNY   77  41  27 S16       29.88F
MORA           CLOUDY    70  41  35 S13       29.90F
CAMBRIDGE      MOSUNNY   77  52  41 S17       29.88F
RUSH CITY      MOSUNNY   72  45  37 S15G22    29.90F
MOOSE LAKE     SUNNY     73  45  35 SW9G18    29.86F
HINCKLEY       FAIR      73  46  38 SW14      29.89F
CLOQUET        CLOUDY    72  37  28 SW12G18   29.88F
MCGREGOR       MOSUNNY   72  43  35 S12G21    29.87F
$$
MNZ071>073-080-081-089-090-097-098-272300-
   Southwest Minnesota

CITY           SKY/WX    TMP DP  RH WIND       PRES   REMARKS
MONTEVIDEO     CLOUDY    79  46  31 SW16G25   29.80F
GRANITE FALLS  CLOUDY    80  46  30 SE21G28   29.81F
CANBY          CLOUDY    78  43  27 S16G31    29.78F
MARSHALL       MOSUNNY   78  45  30 S22G30    29.79F
REDWOOD FALLS  CLOUDY    78  41  26 S21       29.82F
OLIVIA         CLOUDY    73  45  35 S14G21    29.82F
PIPESTONE      SUNNY     79  46  31 S21G29    29.81F
WINDOM         SUNNY     77  41  27 S17G26    29.86F
WORTHINGTON    SUNNY     76  45  33 S16G23    29.85F
JACKSON        MOSUNNY   77  41  27 S17G24    29.89F
TRACY          CLOUDY    78  46  31 S15G26    29.82F
SLAYTON        SUNNY     77  44  30 S23G30    29.85F
$$
MNZ065>067-074>077-082>085-091>093-272300-
   South Central Minnesota

CITY           SKY/WX    TMP DP  RH WIND       PRES   REMARKS
MANKATO        CLOUDY    75  44  33 S15       29.91F
NEW ULM        CLOUDY    75  41  29 S16       29.87F
ST JAMES       MOSUNNY   75  41  29 SE20G25   29.88F
FAIRMONT       SUNNY     77  46  33 S17G25    29.90F
GLENCOE        CLOUDY    76  47  36 S9G16     29.88F
FARIBAULT      CLOUDY    75  43  31 S14G21    29.93F
OWATONNA       CLOUDY    75  45  33 S16G22    29.94F
WASECA         CLOUDY    72  43  35 S14G22    29.94F
ALBERT LEA     MOSUNNY   73  39  29 S9G21     29.95F
$$
MNZ078>079-086>088-094>096-272300-
   Southeast Minnesota

CITY           SKY/WX    TMP DP  RH WIND       PRES   REMARKS
ROCHESTER      MOSUNNY   74  43  32 S17G26    29.97F
RED WING       PTSUNNY   75  39  27 S7G16     29.92F
STANTON        CLOUDY    75  41  28 S12G18    29.91F
DODGE CENTER   MOSUNNY   73  39  29 S17       29.95F
WINONA         MOSUNNY   73  45  35 S3        29.97F
AUSTIN         SUNNY     72  45  37 S13       29.95F
PRESTON        SUNNY     73  44  35 SW9       29.99F
$$
ABBREVIATIONS USED IN REMARKS
   TC - TEMPERATURES IN CELSIUS
  WCI - WIND CHILL INDEX
   HX - HEAT INDEX
  VSB - VISIBILITY
$$



USA.gov is the U.S. government's official web portal to all federal, state and local government web resources and services.